Hourly Data Report for February 21, 2021

TORONTO CITY
ONTARIO
Current Station Operator: ECCC - MSC

43°40'00.000" N
79°24'00.000" W
112.50 m
6158355
71508
XTO

Download Data

Hourly Data (February 2021)
Hourly Data Report for February 21, 2021
TIME
LST
Temp Definition
°C
Dew Point Definition
°C
Rel Hum Definition
%
Precip. Amount Definition
mm

Wind Dir Definition
10's deg

Wind Spd Definition
km/h
Visibility Definition
km
Stn Press Definition
kPa
Hmdx Definition


Wind Chill Definition


Weather Definition


00:00 -6.6 -10.9 71 0.0       101.58     LegendNANA
01:00 -7.0 -10.4 77 0.0       101.63     LegendNANA
02:00 -6.4 -9.6 78 0.0       101.69     LegendNANA
03:00 -6.5 -9.7 79 0.0       101.71     LegendNANA
04:00 -6.9 -10.6 75 0.0       101.71     LegendNANA
05:00 -7.1 -10.6 76 0.0       101.75     LegendNANA
06:00 -8.1 -11.1 79 0.0       101.81     LegendNANA
07:00 -8.0 -11.0 79 0.0       101.83     LegendNANA
08:00 -6.8 -11.1 72 0.0       101.86     LegendNANA
09:00 -5.3 -10.5 67 0.0       101.91     LegendNANA
10:00 -4.0 -10.0 63 0.0       101.91     LegendNANA
11:00 -3.6 -8.6 68 0.0       101.91     LegendNANA
12:00 -3.6 -8.4 69 0.0       101.91     LegendNANA
13:00 -2.3 -8.8 61 0.0       101.83     LegendNANA
14:00 -2.2 -9.1 59 0.0       101.72     LegendNANA
15:00 -2.5 -9.4 59 0.0       101.65     LegendNANA
16:00 -2.5 -8.7 62 0.0       101.63     LegendNANA
17:00 -2.6 -9.0 62 0.0       101.51     LegendNANA
18:00 -2.7 -8.6 64 0.0       101.42     LegendNANA
19:00 -2.4 -8.8 61 0.0       101.32     LegendNANA
20:00 -2.1 -8.8 60 0.0       101.19     LegendNANA
21:00 -1.5 -9.3 55 0.0       101.04     LegendNANA
22:00 -0.9 -8.6 56 0.0       100.93     LegendNANA
23:00 -0.5 -6.7 63 0.0       100.77     LegendNANA

Notes on Data Quality.

Legend

  • E = Estimated
  • M = Missing
  • NA = Not Available*
  • [empty] = Indicates an unobserved value
Date modified: